TimeEDT,TemperatureF,Dew PointF,Humidity,Sea Level PressureIn,VisibilityMPH,Wind Direction,Wind SpeedMPH,Gust SpeedMPH,PrecipitationIn,Events,Conditions,WindDirDegrees,DateUTC
12:14 AM,54.1,52.9,95,30.19,10.0,Calm,Calm,-,N/A,,Clear,0,2013-09-28 04:14:00
12:34 AM,54.1,52.3,94,30.19,10.0,ESE,4.6,-,N/A,,Clear,110,2013-09-28 04:34:00
12:53 AM,56.3,53.6,91,30.19,10.0,ESE,3.5,-,N/A,,Clear,120,2013-09-28 04:53:00
1:13 AM,54.5,53.2,96,30.19,10.0,Calm,Calm,-,N/A,,Clear,0,2013-09-28 05:13:00
1:34 AM,52.0,51.3,97,30.19,10.0,Calm,Calm,-,N/A,,Clear,0,2013-09-28 05:34:00
1:53 AM,50.7,50.4,99,30.20,4.0,Calm,Calm,-,N/A,,Clear,0,2013-09-28 05:53:00
2:13 AM,49.3,49.1,99,30.20,0.2,Calm,Calm,-,N/A,Fog,Fog,0,2013-09-28 06:13:00
2:34 AM,48.9,48.9,100,30.19,0.2,Calm,Calm,-,N/A,Fog,Fog,0,2013-09-28 06:34:00
2:53 AM,49.1,49.1,100,30.19,1.0,Calm,Calm,-,N/A,,Mist,0,2013-09-28 06:53:00
3:14 AM,48.7,48.7,100,30.19,0.2,Calm,Calm,-,N/A,Fog,Fog,0,2013-09-28 07:14:00
3:34 AM,49.1,49.1,100,30.18,0.2,Calm,Calm,-,N/A,Fog,Fog,0,2013-09-28 07:34:00
3:53 AM,48.2,48.2,100,30.19,1.0,Calm,Calm,-,N/A,,Mostly Cloudy,0,2013-09-28 07:53:00
4:14 AM,47.1,47.1,100,30.19,0.8,East,3.5,-,N/A,,Mist,80,2013-09-28 08:14:00
4:34 AM,47.1,47.1,100,30.18,0.5,East,3.5,-,N/A,Fog,Fog,80,2013-09-28 08:34:00
4:53 AM,47.8,47.8,100,30.19,0.8,East,3.5,-,N/A,,Mist,80,2013-09-28 08:53:00
5:14 AM,50.5,50.5,100,30.19,7.0,East,3.5,-,N/A,,Clear,90,2013-09-28 09:14:00
5:33 AM,51.3,51.3,100,30.18,5.0,East,4.6,-,N/A,,Clear,100,2013-09-28 09:33:00
5:54 AM,52.5,52.5,100,30.18,7.0,East,4.6,-,N/A,,Clear,100,2013-09-28 09:54:00
6:14 AM,51.4,51.4,100,30.18,5.0,East,3.5,-,N/A,,Clear,90,2013-09-28 10:14:00
6:33 AM,51.4,51.4,100,30.18,4.0,Calm,Calm,-,N/A,,Scattered Clouds,0,2013-09-28 10:33:00
6:54 AM,52.7,52.7,100,30.19,4.0,Calm,Calm,-,N/A,,Mostly Cloudy,0,2013-09-28 10:54:00
7:14 AM,55.2,55.2,100,30.19,1.8,SSE,5.8,-,N/A,,Overcast,150,2013-09-28 11:14:00
7:33 AM,55.6,55.6,100,30.19,1.5,SE,5.8,-,N/A,,Overcast,140,2013-09-28 11:33:00
7:54 AM,55.9,55.9,100,30.19,0.5,SE,5.8,-,N/A,Fog,Fog,140,2013-09-28 11:54:00
8:14 AM,56.5,56.5,100,30.19,0.8,SE,4.6,-,N/A,,Overcast,140,2013-09-28 12:14:00
8:33 AM,57.2,57.2,100,30.19,2.0,SE,8.1,-,N/A,,Overcast,140,2013-09-28 12:33:00
8:54 AM,57.9,57.9,100,30.19,4.0,SE,8.1,-,N/A,,Overcast,140,2013-09-28 12:54:00
9:14 AM,58.6,58.6,100,30.19,5.0,SE,5.8,-,N/A,,Overcast,140,2013-09-28 13:14:00
9:33 AM,59.4,59.4,100,30.19,5.0,SSE,6.9,-,N/A,,Overcast,150,2013-09-28 13:33:00
9:54 AM,60.6,59.7,97,30.19,7.0,SE,5.8,-,N/A,,Overcast,140,2013-09-28 13:54:00
10:14 AM,61.3,59.5,94,30.19,10.0,SSE,8.1,-,N/A,,Overcast,160,2013-09-28 14:14:00
10:33 AM,63.3,59.7,88,30.19,10.0,South,8.1,-,N/A,,Overcast,190,2013-09-28 14:33:00
10:54 AM,64.4,59.5,84,30.19,10.0,South,5.8,-,N/A,,Scattered Clouds,180,2013-09-28 14:54:00
11:14 AM,65.5,59.0,80,30.17,10.0,South,6.9,-,N/A,,Clear,170,2013-09-28 15:14:00
11:33 AM,66.9,58.3,74,30.17,10.0,SSE,6.9,-,N/A,,Clear,160,2013-09-28 15:33:00
11:54 AM,69.8,57.7,65,30.16,10.0,South,8.1,-,N/A,,Clear,170,2013-09-28 15:54:00
12:14 PM,70.9,57.4,62,30.15,10.0,SSE,6.9,-,N/A,,Clear,160,2013-09-28 16:14:00
12:34 PM,73.4,56.5,55,30.14,10.0,South,10.4,17.3,N/A,,Clear,170,2013-09-28 16:34:00
12:54 PM,74.7,55.8,52,30.13,10.0,South,6.9,-,N/A,,Clear,170,2013-09-28 16:54:00
1:13 PM,75.7,55.4,49,30.12,10.0,South,8.1,-,N/A,,Clear,180,2013-09-28 17:13:00
1:34 PM,77.0,55.6,47,30.11,7.0,SE,9.2,-,N/A,,Clear,140,2013-09-28 17:34:00
1:54 PM,77.0,55.0,47,30.09,10.0,South,10.4,-,N/A,,Clear,180,2013-09-28 17:54:00
2:13 PM,77.2,54.5,45,30.08,10.0,South,11.5,-,N/A,,Clear,170,2013-09-28 18:13:00
2:34 PM,78.1,54.1,43,30.07,10.0,SE,11.5,17.3,N/A,,Clear,140,2013-09-28 18:34:00
2:54 PM,78.1,53.4,42,30.06,10.0,South,12.7,18.4,N/A,,Clear,170,2013-09-28 18:54:00
3:13 PM,79.0,52.5,40,30.05,10.0,SE,12.7,19.6,N/A,,Clear,140,2013-09-28 19:13:00
3:34 PM,78.8,52.3,40,30.04,7.0,SSE,9.2,-,N/A,,Clear,150,2013-09-28 19:34:00
3:54 PM,79.0,51.6,38,30.04,10.0,SSE,8.1,18.4,N/A,,Clear,150,2013-09-28 19:54:00
4:13 PM,79.5,51.1,37,30.03,10.0,South,10.4,17.3,N/A,,Clear,170,2013-09-28 20:13:00
4:34 PM,79.0,50.7,37,30.02,10.0,SSE,11.5,17.3,N/A,,Clear,150,2013-09-28 20:34:00
4:54 PM,78.8,50.2,37,30.02,10.0,South,10.4,-,N/A,,Clear,170,2013-09-28 20:54:00
5:13 PM,78.8,50.9,38,30.01,7.0,South,9.2,16.1,N/A,,Clear,170,2013-09-28 21:13:00
5:34 PM,78.1,51.3,39,30.01,10.0,SSE,9.2,16.1,N/A,,Clear,160,2013-09-28 21:34:00
5:54 PM,77.4,52.2,41,30.01,10.0,South,8.1,-,N/A,,Clear,170,2013-09-28 21:54:00
6:14 PM,75.7,52.7,45,30.01,10.0,SSE,6.9,-,N/A,,Clear,160,2013-09-28 22:14:00
6:34 PM,74.7,53.1,47,30.01,10.0,SSE,8.1,-,N/A,,Clear,160,2013-09-28 22:34:00
6:54 PM,74.7,53.1,47,30.01,10.0,SSE,6.9,-,N/A,,Clear,160,2013-09-28 22:54:00
7:14 PM,73.4,53.1,49,30.01,10.0,SSE,8.1,-,N/A,,Clear,160,2013-09-28 23:14:00
7:34 PM,71.8,53.1,52,30.01,10.0,SSE,5.8,-,N/A,,Clear,160,2013-09-28 23:34:00
7:53 PM,71.1,53.6,54,30.00,10.0,SE,5.8,-,N/A,,Clear,140,2013-09-28 23:53:00
8:14 PM,70.5,53.6,55,30.00,10.0,SE,6.9,-,N/A,,Clear,140,2013-09-29 00:14:00
8:34 PM,69.8,54.1,57,30.00,10.0,SSE,9.2,-,N/A,,Clear,150,2013-09-29 00:34:00
8:53 PM,70.0,54.3,57,30.00,10.0,SSE,10.4,-,N/A,,Clear,150,2013-09-29 00:53:00
9:14 PM,69.3,53.8,58,30.00,10.0,SSE,9.2,18.4,N/A,,Clear,150,2013-09-29 01:14:00
9:34 PM,68.4,54.0,60,29.99,10.0,SE,12.7,17.3,N/A,,Clear,140,2013-09-29 01:34:00
9:54 PM,67.8,54.0,61,29.99,10.0,SSE,10.4,17.3,N/A,,Clear,150,2013-09-29 01:54:00
10:14 PM,67.1,53.8,62,29.99,10.0,SSE,8.1,-,N/A,,Clear,160,2013-09-29 02:14:00
10:34 PM,66.6,53.8,63,29.99,10.0,SSE,6.9,-,N/A,,Clear,160,2013-09-29 02:34:00
10:54 PM,66.6,54.5,65,29.98,10.0,SSE,8.1,-,N/A,,Clear,160,2013-09-29 02:54:00
11:14 PM,65.7,54.0,66,29.98,10.0,SSE,8.1,-,N/A,,Clear,150,2013-09-29 03:14:00
11:34 PM,65.1,53.8,67,29.97,10.0,SSE,9.2,17.3,N/A,,Clear,160,2013-09-29 03:34:00
11:54 PM,64.8,53.8,68,29.97,10.0,SSE,9.2,-,N/A,,Clear,150,2013-09-29 03:54:00